When you browse on this site, cookies collect data to enhance your experience and personalize the content and advertising you see.
Visit our Privacy Policy to learn more. By continuing to use the site, you agree to this use of cookies and data.
  • In United Kingdom
  • List of Countries
  • For 7 days
  • Water Temperature
  • Satellite Maps
  • Weather Map
  • Weather Widgets
  • user-avatar
    Login

    Hourly Weather Gan Yavne

    Today, 24 March, Sunday

    Time Temperature Precipitation Wind Pressure Humidity
    00:00 +17°C° 0 mm 2 mps 751 mmHg 74%
    01:00 +17°C° 0 mm 3 mps 750 mmHg 74%
    02:00 +18°C° 0 mm 3 mps 750 mmHg 67%
    03:00 +17°C° 0.1 mm 4 mps 749 mmHg 68%
    04:00 +16°C° 0.1 mm 5 mps 749 mmHg 69%
    05:00 +16°C° 0.1 mm 5 mps 749 mmHg 71%
    06:00 +16°C° 0 mm 5 mps 749 mmHg 65%
    07:00 +17°C° 0 mm 5 mps 749 mmHg 60%
    08:00 +19°C° 0 mm 5 mps 748 mmHg 53%
    09:00 +20°C° 0 mm 4 mps 749 mmHg 49%
    10:00 +20°C° 0 mm 4 mps 749 mmHg 45%
    11:00 +20°C° 0 mm 4 mps 749 mmHg 41%
    12:00 +20°C° 0 mm 4 mps 749 mmHg 42%
    13:00 +21°C° 0 mm 4 mps 749 mmHg 43%
    14:00 +21°C° 0 mm 5 mps 749 mmHg 44%
    15:00 +20°C° 0 mm 4 mps 748 mmHg 47%
    16:00 +19°C° 0 mm 4 mps 748 mmHg 50%
    17:00 +18°C° 0 mm 3 mps 748 mmHg 53%
    18:00 +17°C° 0.1 mm 3 mps 748 mmHg 60%
    19:00 +16°C° 0.1 mm 2 mps 748 mmHg 66%
    20:00 +15°C° 0.1 mm 1 mps 748 mmHg 72%
    21:00 +15°C° 0.2 mm 1 mps 748 mmHg 73%
    22:00 +15°C° 0.2 mm 2 mps 749 mmHg 73%
    23:00 +15°C° 0.2 mm 2 mps 749 mmHg 74%

    Tomorrow, 25 March, Monday

    Time Temperature Precipitation Wind Pressure Humidity
    00:00 +15°C° 0.8 mm 2 mps 748 mmHg 75%
    01:00 +14°C° 0.8 mm 3 mps 748 mmHg 75%
    02:00 +14°C° 0.8 mm 3 mps 748 mmHg 76%
    03:00 +13°C° 1.2 mm 3 mps 748 mmHg 77%
    04:00 +13°C° 1.2 mm 3 mps 748 mmHg 78%
    05:00 +13°C° 1.2 mm 4 mps 748 mmHg 79%
    06:00 +13°C° 0.4 mm 3 mps 748 mmHg 75%
    07:00 +14°C° 0.4 mm 2 mps 749 mmHg 71%
    08:00 +14°C° 0.4 mm 1 mps 749 mmHg 67%
    09:00 +16°C° 0 mm 3 mps 750 mmHg 62%
    10:00 +17°C° 0 mm 4 mps 750 mmHg 56%
    11:00 +17°C° 0 mm 5 mps 750 mmHg 51%
    12:00 +17°C° 0.1 mm 6 mps 750 mmHg 51%
    13:00 +17°C° 0.1 mm 7 mps 750 mmHg 52%
    14:00 +17°C° 0.1 mm 8 mps 750 mmHg 52%
    15:00 +16°C° 0.1 mm 7 mps 751 mmHg 54%
    16:00 +15°C° 0.1 mm 5 mps 751 mmHg 56%
    17:00 +15°C° 0.1 mm 4 mps 752 mmHg 58%
    18:00 +14°C° 0 mm 3 mps 752 mmHg 60%
    19:00 +14°C° 0 mm 2 mps 753 mmHg 61%
    20:00 +14°C° 0 mm 1 mps 753 mmHg 63%
    21:00 +13°C° 0 mm 1 mps 754 mmHg 63%
    22:00 +13°C° 0 mm 2 mps 754 mmHg 64%
    23:00 +12°C° 0 mm 3 mps 754 mmHg 64%

    Day after tomorrow, 26 March, Tuesday

    Time Temperature Precipitation Wind Pressure Humidity
    00:00 +12°C° 0 mm 3 mps 754 mmHg 65%
    01:00 +12°C° 0 mm 3 mps 754 mmHg 66%
    02:00 +12°C° 0 mm 3 mps 755 mmHg 67%
    03:00 +13°C° 0 mm 2 mps 755 mmHg 67%
    04:00 +13°C° 0 mm 2 mps 755 mmHg 68%
    05:00 +13°C° 0 mm 2 mps 755 mmHg 69%
    06:00 +13°C° 0 mm 3 mps 756 mmHg 65%
    07:00 +14°C° 0 mm 3 mps 756 mmHg 62%
    08:00 +15°C° 0 mm 4 mps 757 mmHg 59%
    09:00 +15°C° 0 mm 4 mps 757 mmHg 56%
    10:00 +16°C° 0 mm 5 mps 757 mmHg 53%
    11:00 +17°C° 0 mm 5 mps 757 mmHg 50%
    12:00 +17°C° 0 mm 5 mps 757 mmHg 48%
    13:00 +19°C° 0 mm 6 mps 756 mmHg 47%
    14:00 +19°C° 0 mm 6 mps 756 mmHg 46%
    15:00 +17°C° 0 mm 6 mps 756 mmHg 50%
    16:00 +17°C° 0 mm 6 mps 756 mmHg 55%
    17:00 +16°C° 0 mm 5 mps 756 mmHg 60%
    18:00 +15°C° 0 mm 4 mps 757 mmHg 64%
    19:00 +14°C° 0 mm 3 mps 757 mmHg 69%
    20:00 +15°C° 0 mm 2 mps 758 mmHg 73%
    21:00 +14°C° 0 mm 3 mps 758 mmHg 71%
    22:00 +13°C° 0 mm 3 mps 758 mmHg 69%
    23:00 +13°C° 0 mm 4 mps 758 mmHg 67%

    27 March, Wednesday

    Time Temperature Precipitation Wind Pressure Humidity
    00:00 +13°C° 0 mm 3 mps 758 mmHg 64%
    01:00 +13°C° 0 mm 3 mps 758 mmHg 62%
    02:00 +13°C° 0 mm 3 mps 758 mmHg 59%
    03:00 +13°C° 0 mm 3 mps 758 mmHg 59%
    04:00 +13°C° 0 mm 3 mps 758 mmHg 59%
    05:00 +13°C° 0 mm 3 mps 758 mmHg 59%
    06:00 +14°C° 0 mm 4 mps 759 mmHg 60%
    07:00 +15°C° 0 mm 4 mps 759 mmHg 60%
    08:00 +17°C° 0 mm 4 mps 759 mmHg 60%
    09:00 +17°C° 0.2 mm 5 mps 760 mmHg 60%
    10:00 +17°C° 0.2 mm 6 mps 760 mmHg 61%
    11:00 +19°C° 0.2 mm 6 mps 760 mmHg 61%
    12:00 +19°C° 0.1 mm 6 mps 760 mmHg 61%
    13:00 +19°C° 0.1 mm 6 mps 760 mmHg 61%
    14:00 +18°C° 0.1 mm 7 mps 759 mmHg 61%
    15:00 +19°C° 0.1 mm 6 mps 760 mmHg 64%
    16:00 +17°C° 0.1 mm 5 mps 760 mmHg 66%
    17:00 +18°C° 0.1 mm 4 mps 760 mmHg 69%
    18:00 +17°C° 0 mm 3 mps 760 mmHg 73%
    19:00 +16°C° 0 mm 2 mps 761 mmHg 77%
    20:00 +15°C° 0 mm 1 mps 761 mmHg 81%
    21:00 +15°C° 0 mm 2 mps 761 mmHg 79%
    22:00 +15°C° 0 mm 2 mps 761 mmHg 77%
    23:00 +15°C° 0 mm 2 mps 761 mmHg 76%

    28 March, Thursday

    Time Temperature Precipitation Wind Pressure Humidity
    00:00 +15°C° 0 mm 2 mps 761 mmHg 78%
    01:00 +14°C° 0 mm 2 mps 761 mmHg 80%
    02:00 +14°C° 0 mm 2 mps 761 mmHg 82%
    03:00 +13°C° 0 mm 3 mps 761 mmHg 84%
    04:00 +13°C° 0 mm 3 mps 761 mmHg 86%
    05:00 +13°C° 0 mm 3 mps 761 mmHg 87%
    06:00 +14°C° 0 mm 3 mps 761 mmHg 81%
    07:00 +16°C° 0 mm 3 mps 761 mmHg 75%
    08:00 +17°C° 0 mm 3 mps 762 mmHg 69%
    09:00 +18°C° 0 mm 3 mps 762 mmHg 63%
    10:00 +19°C° 0 mm 3 mps 761 mmHg 57%
    11:00 +20°C° 0 mm 3 mps 761 mmHg 52%
    12:00 +21°C° 0 mm 3 mps 761 mmHg 50%
    13:00 +21°C° 0 mm 3 mps 760 mmHg 49%
    14:00 +21°C° 0 mm 3 mps 759 mmHg 48%
    15:00 +21°C° 0 mm 3 mps 759 mmHg 53%
    16:00 +20°C° 0 mm 3 mps 759 mmHg 57%
    17:00 +19°C° 0 mm 3 mps 759 mmHg 62%
    18:00 +19°C° 0 mm 3 mps 759 mmHg 66%
    19:00 +18°C° 0 mm 2 mps 759 mmHg 69%
    20:00 +17°C° 0 mm 2 mps 759 mmHg 73%
    21:00 +17°C° 0 mm 2 mps 758 mmHg 66%
    22:00 +18°C° 0 mm 2 mps 758 mmHg 60%
    23:00 +19°C° 0 mm 1 mps 758 mmHg 53%

    29 March, Friday

    Time Temperature Precipitation Wind Pressure Humidity
    00:00 +18°C° 0 mm 2 mps 757 mmHg 49%
    01:00 +18°C° 0 mm 2 mps 757 mmHg 44%
    02:00 +18°C° 0 mm 2 mps 757 mmHg 40%
    03:00 +18°C° 0 mm 3 mps 756 mmHg 39%
    04:00 +18°C° 0 mm 4 mps 756 mmHg 38%
    05:00 +17°C° 0 mm 5 mps 756 mmHg 38%
    06:00 +20°C° 0 mm 6 mps 756 mmHg 37%
    07:00 +21°C° 0 mm 7 mps 755 mmHg 36%
    08:00 +22°C° 0 mm 7 mps 755 mmHg 36%
    09:00 +24°C° 0 mm 7 mps 754 mmHg 33%
    10:00 +26°C° 0 mm 7 mps 754 mmHg 30%
    11:00 +27°C° 0 mm 7 mps 753 mmHg 27%
    12:00 +26°C° 0.1 mm 5 mps 752 mmHg 31%
    13:00 +25°C° 0.1 mm 4 mps 752 mmHg 36%
    14:00 +24°C° 0.1 mm 3 mps 751 mmHg 41%
    15:00 +25°C° 0 mm 4 mps 750 mmHg 39%
    16:00 +25°C° 0 mm 5 mps 749 mmHg 38%
    17:00 +24°C° 0 mm 6 mps 749 mmHg 37%
    18:00 +24°C° 0.1 mm 8 mps 749 mmHg 37%
    19:00 +23°C° 0.1 mm 10 mps 749 mmHg 37%
    20:00 +23°C° 0.1 mm 12 mps 749 mmHg 37%
    21:00 +21°C° 0 mm 10 mps 749 mmHg 52%
    22:00 +18°C° 0 mm 9 mps 750 mmHg 67%
    23:00 +17°C° 0 mm 8 mps 751 mmHg 83%
    Show more